TimeEDT,TemperatureF,Dew PointF,Humidity,Sea Level PressureIn,VisibilityMPH,Wind Direction,Wind SpeedMPH,Gust SpeedMPH,PrecipitationIn,Events,Conditions,WindDirDegrees,DateUTC
12:56 AM,52.0,48.0,86,30.09,10.0,NW,3.5,-,N/A,,Clear,310,2013-08-06 04:56:00
1:56 AM,51.1,48.9,92,30.09,10.0,Calm,Calm,-,N/A,,Clear,0,2013-08-06 05:56:00
2:56 AM,48.9,46.9,93,30.09,10.0,Calm,Calm,-,N/A,,Clear,0,2013-08-06 06:56:00
3:56 AM,48.0,46.0,93,30.11,10.0,Calm,Calm,-,N/A,,Clear,0,2013-08-06 07:56:00
4:56 AM,48.0,46.0,93,30.11,10.0,Calm,Calm,-,N/A,,Clear,0,2013-08-06 08:56:00
5:56 AM,48.0,46.0,93,30.13,10.0,Calm,Calm,-,N/A,,Clear,0,2013-08-06 09:56:00
6:56 AM,52.0,50.0,93,30.14,10.0,Calm,Calm,-,N/A,,Clear,0,2013-08-06 10:56:00
7:56 AM,57.9,51.1,78,30.15,10.0,Calm,Calm,-,N/A,,Scattered Clouds,0,2013-08-06 11:56:00
8:56 AM,64.0,52.0,65,30.16,10.0,Calm,Calm,-,N/A,,Clear,0,2013-08-06 12:56:00
9:56 AM,70.0,51.1,51,30.16,10.0,Calm,Calm,-,N/A,,Clear,0,2013-08-06 13:56:00
10:56 AM,71.1,50.0,47,30.16,10.0,Variable,3.5,-,N/A,,Clear,0,2013-08-06 14:56:00
11:56 AM,75.0,48.9,40,30.15,10.0,Variable,4.6,-,N/A,,Scattered Clouds,0,2013-08-06 15:56:00
12:56 PM,75.9,50.0,40,30.16,10.0,West,5.8,-,N/A,,Scattered Clouds,280,2013-08-06 16:56:00
1:56 PM,75.0,48.9,40,30.15,10.0,SW,4.6,-,N/A,,Clear,220,2013-08-06 17:56:00
2:56 PM,78.1,51.1,39,30.14,10.0,Calm,Calm,-,N/A,,Clear,0,2013-08-06 18:56:00
3:56 PM,77.0,52.0,42,30.14,10.0,South,6.9,-,N/A,,Partly Cloudy,170,2013-08-06 19:56:00
4:56 PM,75.0,50.0,41,30.15,10.0,ESE,10.4,-,N/A,,Clear,110,2013-08-06 20:56:00
5:56 PM,73.9,50.0,43,30.15,10.0,East,9.2,-,N/A,,Scattered Clouds,100,2013-08-06 21:56:00
6:56 PM,72.0,48.9,44,30.16,10.0,East,8.1,-,N/A,,Clear,80,2013-08-06 22:56:00
7:56 PM,68.0,48.9,50,30.16,10.0,East,6.9,-,N/A,,Clear,100,2013-08-06 23:56:00
8:56 PM,64.0,51.1,63,30.17,10.0,East,4.6,-,N/A,,Clear,80,2013-08-07 00:56:00
9:56 PM,62.1,53.1,72,30.17,10.0,Calm,Calm,-,N/A,,Clear,0,2013-08-07 01:56:00
10:56 PM,57.9,53.1,84,30.17,10.0,Calm,Calm,-,N/A,,Clear,0,2013-08-07 02:56:00
11:56 PM,57.0,53.1,87,30.18,10.0,Calm,Calm,-,N/A,,Clear,0,2013-08-07 03:56:00